CST,Max TemperatureF,Mean TemperatureF,Min TemperatureF,Max Dew PointF,MeanDew PointF,Min DewpointF,Max Humidity, Mean Humidity, Min Humidity, Max Sea Level PressureIn, Mean Sea Level PressureIn, Min Sea Level PressureIn, Max VisibilityMiles, Mean VisibilityMiles, Min VisibilityMiles, Max Wind SpeedMPH, Mean Wind SpeedMPH, Max Gust SpeedMPH,PrecipitationIn, CloudCover, Events, WindDirDegrees
2013-2-1,53,38,23,32,23,14,80,59,37,30.44,30.32,30.14,10,10,10,16,6,22,0.01,0,,116
2013-2-2,60,46,33,39,34,30,87,65,42,30.31,30.25,30.17,10,10,10,14,5,17,0.01,0,,318
2013-2-3,62,48,35,36,34,32,87,55,34,30.34,30.19,29.94,10,10,5,15,4,22,0.00,0,,157
2013-2-4,71,61,48,46,38,34,63,46,30,29.97,29.89,29.84,10,10,10,14,9,20,0.00,1,Thunderstorm,6
2013-2-5,71,53,35,55,43,34,100,76,37,30.05,30.00,29.94,10,9,0,6,1,,0.00,0,Fog,114
2013-2-6,60,53,46,61,54,46,100,99,88,30.06,29.98,29.89,10,4,0,18,6,26,0.00,8,Fog,149
2013-2-7,64,54,42,61,54,41,100,98,87,30.18,29.95,29.82,10,6,1,21,12,28,0.03,6,Rain,55
2013-2-8,53,43,33,41,36,34,100,80,51,30.35,30.23,30.15,10,8,3,9,5,,0.00,1,,50
2013-2-9,50,44,39,50,41,36,100,93,81,30.15,29.97,29.71,10,6,2,20,11,26,0.00,6,Rain-Thunderstorm,146
2013-2-10,62,53,44,55,39,32,100,61,34,30.07,29.82,29.66,10,9,2,20,11,26,0.00,2,Rain-Thunderstorm,265
2013-2-11,55,45,35,32,31,28,87,61,41,30.24,30.15,30.07,10,10,10,14,5,17,0.00,1,,44
2013-2-12,44,40,35,37,35,32,100,89,61,30.10,30.03,29.96,10,6,2,12,7,17,0.02,7,Rain-Snow,24
2013-2-13,59,47,35,43,36,32,100,79,41,30.09,30.04,29.99,10,8,2,10,7,16,0.01,4,,259
2013-2-14,62,48,35,41,35,32,87,62,37,30.24,30.07,30.00,10,10,10,21,5,29,0.00,0,,324
2013-2-15,44,38,32,41,28,21,93,67,39,30.43,30.36,30.24,10,10,7,16,10,22,0.00,2,Snow,356
2013-2-16,53,42,32,36,31,21,100,69,38,30.40,30.27,30.09,10,10,5,15,8,20,0.00,2,Snow,246
2013-2-17,73,55,37,41,35,32,81,51,27,30.09,29.93,29.77,10,10,10,23,12,37,0.00,0,,185
2013-2-18,62,52,42,54,42,32,82,61,41,30.16,29.84,29.66,10,10,10,29,19,41,0.00,2,,279
2013-2-19,55,44,32,32,30,28,93,60,38,30.35,30.25,30.17,10,10,10,10,3,,0.00,0,,78
2013-2-20,44,40,35,41,35,30,100,93,57,30.23,30.12,29.92,10,7,0,15,9,22,0.03,7,Rain-Snow,115
2013-2-21,44,37,30,43,36,27,100,97,86,30.00,29.79,29.68,10,8,2,20,11,26,0.01,8,Snow-Thunderstorm,41
2013-2-22,41,32,24,30,26,21,93,78,61,30.17,30.09,29.99,10,10,10,17,9,21,0.00,0,,338
2013-2-23,48,36,24,32,28,23,100,77,50,30.13,30.03,29.93,10,10,5,9,3,,0.00,0,,129
2013-2-24,64,50,35,43,38,30,87,66,45,29.92,29.83,29.73,10,10,10,23,12,31,0.00,0,,138
2013-2-25,51,43,35,43,40,36,100,94,67,29.78,29.60,29.48,10,6,1,22,12,30,0.00,7,Rain-Snow-Thunderstorm,31
2013-2-26,51,42,33,37,35,32,100,82,54,29.94,29.77,29.57,10,9,2,26,18,33,0.00,3,Rain-Snow,324
2013-2-27,48,40,32,36,33,32,100,80,54,30.22,30.10,29.93,10,10,5,23,10,30,0.00,0,,317
2013-2-28,51,42,32,36,33,32,100,77,50,30.26,30.23,30.19,10,10,10,20,10,29,0.00,0,,315